EW4100 Weather Reports


Display with metric or nautical units.
time (UTC)temp
F
wind
direction
speed
MPH
gust
MPH
rain 1hr
in
rain 24hr
in
rain mn
in
humidity
%
barometer
mb
20260505130111 54 0 1.0 5.0 0.00 0.00 0.00 83 1014.8
20260505124557 54 0 0.0 5.0 0.00 0.00 0.00 83 1014.6
20260505124053 53 0 1.0 8.0 0.00 0.00 0.00 83 1014.6
20260505123553 54 174 0.0 8.0 0.00 0.00 0.00 83 1014.5
20260505123055 53 0 2.0 8.0 0.00 0.00 0.00 83 1014.5
20260505122553 53 0 0.0 8.0 0.00 0.00 0.00 83 1014.4
20260505122056 53 0 1.0 8.0 0.00 0.00 0.00 83 1014.5
20260505121559 53 136 3.0 6.0 0.00 0.00 0.00 83 1014.5
20260505121054 53 0 1.0 7.0 0.00 0.00 0.00 83 1014.3
20260505120553 53 136 0.0 7.0 0.00 0.00 0.00 83 1014.4
20260505120055 53 227 1.0 7.0 0.00 0.00 0.00 83 1014.3
20260505115553 53 298 1.0 6.0 0.00 0.00 0.00 83 1014.2
20260505115053 53 0 1.0 4.0 0.00 0.00 0.00 83 1014.2
20260505114559 53 171 0.0 10.0 0.00 0.00 0.00 83 1014.2
20260505114053 53 0 2.0 10.0 0.00 0.00 0.00 83 1014.2
20260505113549 53 138 1.0 8.0 0.00 0.00 0.00 83 1014.2
20260505113109 53 155 2.0 10.0 0.00 0.00 0.00 83 1014.1
20260505112553 53 179 2.0 10.0 0.00 0.00 0.00 83 1014.1
20260505112054 53 172 0.0 6.0 0.00 0.00 0.00 83 1014.1
20260505111554 53 213 2.0 6.0 0.00 0.00 0.00 83 1014.0
20260505111054 53 219 1.0 7.0 0.00 0.00 0.00 84 1014.0
20260505110554 53 186 2.0 13.0 0.00 0.00 0.00 84 1014.0
20260505102053 53 229 1.0 7.0 0.00 0.00 0.00 84 1013.7
20260505101554 53 241 1.0 7.0 0.00 0.00 0.00 84 1013.7
20260505101053 53 156 0.0 7.0 0.00 0.00 0.00 83 1013.7
20260505100554 53 0 0.0 7.0 0.00 0.00 0.00 83 1013.6
20260505100053 53 244 1.0 6.0 0.00 0.00 0.00 83 1013.6
20260505095556 53 205 0.0 6.0 0.00 0.00 0.00 83 1013.6
20260505095055 53 227 1.0 6.0 0.00 0.00 0.00 83 1013.5
20260505094559 53 218 1.0 3.0 0.00 0.00 0.00 83 1013.5
20260505094055 54 224 0.0 3.0 0.00 0.00 0.00 83 1013.5
20260505093555 54 184 0.0 2.0 0.00 0.00 0.00 83 1013.5
20260505093101 54 0 0.0 3.0 0.00 0.00 0.00 83 1013.3
20260505092556 54 0 0.0 5.0 0.00 0.00 0.00 82 1013.3
20260505092056 54 220 1.0 5.0 0.00 0.00 0.00 82 1013.3
20260505091607 54 0 0.0 5.0 0.00 0.00 0.00 82 1013.3
20260505091059 54 183 0.0 5.0 0.00 0.00 0.00 82 1013.2
20260505090555 54 185 1.0 5.0 0.00 0.00 0.00 82 1013.3
20260505090057 54 227 0.0 4.0 0.00 0.00 0.00 81 1013.3
20260505085556 55 241 1.0 4.0 0.00 0.00 0.00 81 1013.2
20260505085056 55 0 0.0 4.0 0.00 0.00 0.00 81 1013.2
20260505084557 55 212 0.0 4.0 0.00 0.00 0.00 81 1013.1
20260505084056 55 185 0.0 6.0 0.00 0.00 0.00 80 1013.1
20260505083554 55 197 0.0 6.0 0.00 0.00 0.00 80 1013.1
20260505083100 55 0 0.0 8.0 0.00 0.00 0.00 80 1013.1
20260505082555 55 0 1.0 8.0 0.00 0.00 0.00 80 1013.0
20260505082057 55 207 3.0 8.0 0.00 0.00 0.00 79 1013.0
20260505081605 56 0 2.0 8.0 0.00 0.00 0.00 79 1013.0
20260505081057 56 178 1.0 7.0 0.00 0.00 0.00 79 1012.9
20260505080556 56 0 1.0 7.0 0.00 0.00 0.00 78 1012.9
20260505080058 56 229 1.0 7.0 0.00 0.00 0.00 78 1012.9
20260505075555 57 226 2.0 6.0 0.00 0.00 0.00 78 1012.9
20260505075055 57 225 2.0 7.0 0.00 0.00 0.00 77 1012.9
20260505074056 57 209 1.0 4.0 0.00 0.00 0.00 77 1012.8
20260505073555 58 0 1.0 4.0 0.00 0.00 0.00 76 1012.8
20260505073126 58 0 1.0 4.0 0.00 0.00 0.00 76 1012.7
20260505072555 58 0 1.0 5.0 0.00 0.00 0.00 75 1012.6
20260505072055 58 227 1.0 5.0 0.00 0.00 0.00 75 1012.5
20260505071602 59 206 1.0 5.0 0.00 0.00 0.00 75 1012.4
20260505071056 59 0 0.0 4.0 0.00 0.00 0.00 74 1012.4
20260505070556 59 252 2.0 4.0 0.00 0.00 0.00 74 1012.3
20260505065556 59 221 1.0 4.0 0.00 0.00 0.00 74 1012.2
20260505065054 60 197 0.0 5.0 0.00 0.00 0.00 74 1012.2
20260505064552 60 0 1.0 5.0 0.00 0.00 0.00 73 1012.1
20260505064053 60 0 0.0 4.0 0.00 0.00 0.00 73 1012.0
20260505063553 60 0 1.0 4.0 0.00 0.00 0.00 73 1012.1
20260505063053 60 0 1.0 3.0 0.00 0.00 0.00 73 1012.0
20260505062553 60 244 0.0 3.0 0.00 0.00 0.00 72 1012.0
20260505062056 60 0 0.0 3.0 0.00 0.00 0.00 72 1011.9
20260505061555 60 234 0.0 3.0 0.00 0.00 0.00 72 1011.9
20260505061054 60 0 0.0 5.0 0.00 0.00 0.00 72 1011.8
20260505060554 60 257 0.0 5.0 0.00 0.00 0.00 72 1011.8
20260505060059 60 230 0.0 4.0 0.00 0.00 0.00 72 1011.8
20260505055553 60 0 0.0 2.0 0.00 0.00 0.00 72 1011.7
20260505055055 60 0 0.0 2.0 0.00 0.00 0.00 72 1011.7
20260505054555 60 0 0.0 3.0 0.00 0.00 0.00 71 1011.6
20260505054055 60 0 0.0 3.0 0.00 0.00 0.00 70 1011.7
20260505053555 60 0 0.0 2.0 0.00 0.00 0.00 70 1011.6
20260505053057 60 0 0.0 3.0 0.00 0.00 0.00 70 1011.6
20260505052553 60 0 0.0 4.0 0.00 0.00 0.00 70 1011.6
20260505052053 60 222 0.0 4.0 0.00 0.00 0.00 69 1011.4
20260505051604 60 0 0.0 0.0 0.00 0.00 0.00 69 1011.4
20260505051057 61 0 0.0 0.0 0.00 0.00 0.00 68 1011.4
20260505050551 61 0 0.0 0.0 0.00 0.00 0.00 68 1011.4
20260505050106 61 0 0.0 0.0 0.00 0.00 0.00 66 1011.4
20260505041557 64 0 0.0 0.0 0.00 0.00 0.00 61 1010.9
20260505041054 65 0 0.0 0.0 0.00 0.00 0.00 60 1010.9
20260505040553 65 0 0.0 0.0 0.00 0.00 0.00 60 1010.8
20260505040056 66 0 0.0 0.0 0.00 0.00 0.00 59 1010.8
20260505035554 66 0 0.0 0.0 0.00 0.00 0.00 60 1010.7
20260505035057 67 0 0.0 0.0 0.00 0.00 0.00 59 1010.6
20260505034554 67 0 0.0 0.0 0.00 0.00 0.00 56 1010.5
20260505034050 67 0 0.0 0.0 0.00 0.00 0.00 56 1010.5
20260505033553 68 0 0.0 0.0 0.00 0.00 0.00 59 1010.4
20260505033053 68 0 0.0 0.0 0.00 0.00 0.00 57 1010.3
20260505032553 69 0 0.0 0.0 0.00 0.00 0.00 54 1010.3
20260505032057 69 0 0.0 0.0 0.00 0.00 0.00 55 1010.2
20260505031556 70 0 0.0 0.0 0.00 0.00 0.00 55 1010.2
20260505031054 70 0 0.0 0.0 0.00 0.00 0.00 56 1010.2
20260505030555 71 0 0.0 0.0 0.00 0.00 0.00 54 1010.0
20260505030055 72 0 0.0 0.0 0.00 0.00 0.00 51 1010.1
20260505025554 73 0 0.0 0.0 0.00 0.00 0.00 49 1009.9
20260505025054 73 0 0.0 1.0 0.00 0.00 0.00 48 1009.8
20260505024601 74 0 0.0 2.0 0.00 0.00 0.00 47 1009.8
20260505024053 74 0 0.0 6.0 0.00 0.00 0.00 49 1009.8
20260505023551 75 306 1.0 7.0 0.00 0.00 0.00 45 1009.7
20260505023054 75 273 0.0 7.0 0.00 0.00 0.00 45 1009.7
20260505022553 75 0 2.0 7.0 0.00 0.00 0.00 45 1009.7
20260505022050 75 0 0.0 6.0 0.00 0.00 0.00 45 1009.7
20260505021552 75 0 0.0 6.0 0.00 0.00 0.00 44 1009.7
20260505021049 76 224 1.0 4.0 0.00 0.00 0.00 43 1009.7
20260505020553 76 308 1.0 4.0 0.00 0.00 0.00 43 1009.7
20260505020051 76 0 0.0 2.0 0.00 0.00 0.00 42 1009.6
20260505015554 76 13 0.0 6.0 0.00 0.00 0.00 37 1009.7
20260505015055 77 345 0.0 6.0 0.00 0.00 0.00 43 1009.7
20260505014553 77 286 1.0 6.0 0.00 0.00 0.00 42 1009.6
20260505014055 77 0 0.0 5.0 0.00 0.00 0.00 42 1009.7
20260505013550 77 0 1.0 5.0 0.00 0.00 0.00 39 1009.6
20260505013107 78 304 0.0 4.0 0.00 0.00 0.00 43 1009.7
20260505012553 78 215 1.0 4.0 0.00 0.00 0.00 42 1009.6
20260505012056 78 0 1.0 6.0 0.00 0.00 0.00 36 1009.7
20260505011600 78 264 1.0 6.0 0.00 0.00 0.00 40 1009.6
20260505011054 78 263 1.0 3.0 0.00 0.00 0.00 39 1009.7
20260505010550 78 237 1.0 8.0 0.00 0.00 0.00 41 1009.7
20260505005554 78 140 0.0 7.0 0.00 0.00 0.00 41 1009.7
20260505005054 78 140 1.0 7.0 0.00 0.00 0.00 41 1009.6
20260505004555 78 212 3.0 8.0 0.00 0.00 0.00 40 1009.7
20260505004053 78 233 2.0 8.0 0.00 0.00 0.00 39 1009.7
20260505003558 78 221 1.0 7.0 0.00 0.00 0.00 39 1009.7
20260505003056 78 218 3.0 7.0 0.00 0.00 0.00 39 1009.7
20260505002553 78 205 1.0 7.0 0.00 0.00 0.00 39 1009.7
20260505002053 78 127 2.0 7.0 0.00 0.00 0.00 38 1009.7
20260505001555 78 235 1.0 8.0 0.00 0.00 0.00 38 1009.8
20260505001054 78 258 1.0 8.0 0.00 0.00 0.00 38 1009.8
20260505000550 79 219 2.0 7.0 0.00 0.00 0.00 38 1009.8
20260505000106 78 260 1.0 7.0 0.00 0.00 0.00 38 1009.8
20260504235553 79 175 3.0 8.0 0.00 0.00 0.00 37 1009.8
20260504235053 79 0 0.0 8.0 0.00 0.00 0.00 37 1009.8
20260504234556 79 166 3.0 8.0 0.00 0.00 0.00 36 1009.9
20260504234053 79 199 1.0 11.0 0.00 0.00 0.00 40 1009.9
20260504233554 79 302 4.0 11.0 0.00 0.00 0.00 37 1009.9
20260504233104 79 182 1.0 9.0 0.00 0.00 0.00 39 1010.0
20260504232554 79 0 3.0 9.0 0.00 0.00 0.00 40 1010.0
20260504232053 79 190 2.0 9.0 0.00 0.00 0.00 37 1010.0
20260504231603 79 0 4.0 9.0 0.00 0.00 0.00 39 1009.9
20260504231053 79 245 1.0 5.0 0.00 0.00 0.00 38 1010.0
20260504230556 79 121 1.0 6.0 0.00 0.00 0.00 39 1010.0
20260504230100 78 0 2.0 9.0 0.00 0.00 0.00 40 1010.0
20260504225554 78 211 3.0 9.0 0.00 0.00 0.00 39 1010.1
20260504225053 79 259 3.0 8.0 0.00 0.00 0.00 40 1010.0
20260504224559 78 255 2.0 8.0 0.00 0.00 0.00 41 1010.1
20260504224053 79 275 2.0 6.0 0.00 0.00 0.00 39 1010.1
20260504223553 79 336 1.0 7.0 0.00 0.00 0.00 40 1010.1
20260504223101 79 192 1.0 10.0 0.00 0.00 0.00 38 1010.2
20260504222550 79 205 1.0 10.0 0.00 0.00 0.00 39 1010.3
20260504222049 79 150 3.0 9.0 0.00 0.00 0.00 41 1010.4
20260504221555 78 222 1.0 9.0 0.00 0.00 0.00 40 1010.5
20260504221050 78 296 3.0 8.0 0.00 0.00 0.00 37 1010.7
20260504220553 78 181 1.0 9.0 0.00 0.00 0.00 36 1010.8
20260504220057 78 219 1.0 10.0 0.00 0.00 0.00 41 1010.8
20260504215554 78 220 4.0 10.0 0.00 0.00 0.00 37 1010.8
20260504215053 78 185 3.0 8.0 0.00 0.00 0.00 37 1010.8
20260504214607 78 271 3.0 9.0 0.00 0.00 0.00 40 1010.9
20260504214053 78 210 3.0 10.0 0.00 0.00 0.00 35 1010.9
20260504213553 78 0 4.0 10.0 0.00 0.00 0.00 39 1010.9
20260504213106 78 274 3.0 10.0 0.00 0.00 0.00 39 1010.8
20260504212552 78 231 2.0 12.0 0.00 0.00 0.00 38 1010.8
20260504212056 77 157 3.0 12.0 0.00 0.00 0.00 38 1010.9
20260504211555 77 207 4.0 12.0 0.00 0.00 0.00 38 1010.9
20260504211053 77 294 1.0 6.0 0.00 0.00 0.00 37 1010.8
20260504210556 77 226 2.0 6.0 0.00 0.00 0.00 36 1010.9
20260504210058 77 198 1.0 8.0 0.00 0.00 0.00 37 1010.9
20260504205552 77 197 3.0 8.0 0.00 0.00 0.00 40 1010.9
20260504205056 77 0 1.0 7.0 0.00 0.00 0.00 37 1010.9
20260504204555 76 263 1.0 7.0 0.00 0.00 0.00 37 1011.0
20260504204053 76 279 2.0 7.0 0.00 0.00 0.00 35 1011.0
20260504203553 76 180 2.0 7.0 0.00 0.00 0.00 37 1011.0
20260504203103 76 223 2.0 10.0 0.00 0.00 0.00 39 1011.0
20260504202552 76 199 3.0 10.0 0.00 0.00 0.00 38 1011.0
20260504202053 76 198 2.0 10.0 0.00 0.00 0.00 39 1010.9
20260504201616 76 177 3.0 10.0 0.00 0.00 0.00 38 1010.9
20260504201054 75 209 0.0 9.0 0.00 0.00 0.00 44 1011.0
20260504200553 75 201 2.0 9.0 0.00 0.00 0.00 43 1011.0
20260504200054 75 0 2.0 8.0 0.00 0.00 0.00 42 1011.1
20260504195552 75 191 2.0 9.0 0.00 0.00 0.00 42 1011.0
20260504195053 75 0 3.0 9.0 0.00 0.00 0.00 42 1011.0
20260504194555 74 314 0.0 6.0 0.00 0.00 0.00 40 1011.0
20260504194054 74 189 1.0 8.0 0.00 0.00 0.00 42 1011.0
20260504193552 74 0 2.0 8.0 0.00 0.00 0.00 45 1011.0
20260504193052 74 190 2.0 6.0 0.00 0.00 0.00 46 1011.0
20260504192551 73 161 1.0 5.0 0.00 0.00 0.00 45 1011.0
20260504192055 73 128 1.0 9.0 0.00 0.00 0.00 46 1011.0
20260504191601 73 5 2.0 9.0 0.00 0.00 0.00 43 1011.1
20260504191055 73 0 4.0 9.0 0.00 0.00 0.00 44 1011.2
20260504190555 72 198 2.0 7.0 0.00 0.00 0.00 46 1011.0
20260504190113 72 237 1.0 6.0 0.00 0.00 0.00 45 1011.1
20260504185558 72 249 2.0 7.0 0.00 0.00 0.00 48 1011.2
20260504185055 71 0 2.0 8.0 0.00 0.00 0.00 48 1011.3
20260504184617 71 0 1.0 8.0 0.00 0.00 0.00 51 1011.3
20260504184055 71 203 3.0 8.0 0.00 0.00 0.00 48 1011.3
20260504183556 70 176 3.0 7.0 0.00 0.00 0.00 48 1011.3
20260504183053 70 221 1.0 9.0 0.00 0.00 0.00 49 1011.3
20260504182555 70 173 3.0 9.0 0.00 0.00 0.00 50 1011.3
20260504182054 69 184 2.0 7.0 0.00 0.00 0.00 50 1011.3
20260504181557 69 0 2.0 9.0 0.00 0.00 0.00 51 1011.3
20260504181056 69 9 1.0 10.0 0.00 0.00 0.00 51 1011.2
20260504180559 68 198 3.0 10.0 0.00 0.00 0.00 52 1011.3
20260504180055 68 0 2.0 6.0 0.00 0.00 0.00 52 1011.3
20260504175555 68 188 1.0 6.0 0.00 0.00 0.00 53 1011.3
20260504175055 67 0 1.0 6.0 0.00 0.00 0.00 53 1011.3
20260504174555 67 148 2.0 5.0 0.00 0.00 0.00 54 1011.3
20260504174055 67 169 1.0 6.0 0.00 0.00 0.00 53 1011.2
20260504173554 67 288 2.0 6.0 0.00 0.00 0.00 53 1011.3
20260504173056 66 169 1.0 7.0 0.00 0.00 0.00 54 1011.3
20260504172555 66 0 2.0 7.0 0.00 0.00 0.00 58 1011.3
20260504172056 66 138 2.0 7.0 0.00 0.00 0.00 56 1011.3
20260504171602 65 277 2.0 6.0 0.00 0.00 0.00 57 1011.4
20260504171056 65 296 1.0 6.0 0.00 0.00 0.00 58 1011.4
20260504170555 65 197 1.0 6.0 0.00 0.00 0.00 58 1011.4
20260504160111 61 221 2.0 5.0 0.00 0.00 0.00 65 1011.1
20260504151053 53 210 0.0 2.0 0.00 0.00 0.00 86 1010.9
20260504150553 53 0 0.0 2.0 0.00 0.00 0.00 87 1010.7
20260504141055 50 0 0.0 0.0 0.00 0.00 0.00 86 1010.5
20260504140553 50 0 0.0 0.0 0.00 0.00 0.00 86 1010.5
20260504140109 50 0 0.0 0.0 0.00 0.00 0.00 86 1010.4